sat.trackr.live / text

‹ back to catalog

STARLINK-3134

NORAD 49434 · 2021-104AC

PAYLOAD ACTIVE UNKNOWN

§ Identity

Operator
Country
US
Launch date
2021-11-13
Launch site
AFETR
Launch vehicle
Mass (kg)
RCS (m²)

Purposes: comms

External: N2YO · Heavens-Above · Gunter

§ Orbital elements

Epoch: 2026-05-24T23:41:44.728800Z

Period
95.44 min
Inclination
53.2172°
Eccentricity
0.0001022
Mean motion
15.08880122 rev/d
Perigee alt
538.9 km
Apogee alt
540.3 km
Semi-major
6,917.8 km
B*
2.4020e-4
RAAN
246.7661°
Arg perigee
80.2175°
Mean anomaly
279.8933°
Rev number
25,123

§ Raw data

STARLINK-31341 49434U 21104AC  26144.98732325  .00003541  00000+0  24020-3 0  99912 49434  53.2172 246.7661 0001022  80.2175 279.8933 15.08880122251235

JSON: /api/v1/satellites/49434 · /tle

For live sub-satellite position, see the globe view (requires WebGL).

§ Visibility from observer

Set your observer location to see the next 7 days of passes ≥ 10°. The values pass through the URL so the page stays shareable.

No JS? Fill the form by hand. The geolocation button needs JavaScript.